Terminal Aerodrome Forecast
Issued by NWS Memphis, TN

Home | Current Version | Previous Version | Text Only | Print | Product List | Glossary On
Versions: 1 2 3 4 5 6 7 8 9 10 11 12 13 14 15
000
FTUS44 KMEG 311700
TAFJBR
TAF
KJBR 311732Z 3118/0118 35015G25KT P6SM BKN035
     FM312000 35015G25KT P6SM SCT040
     FM312300 35010KT P6SM SKC
     FM010200 34006KT P6SM SKC=

USA.gov is the U.S. government's official web portal to all federal, state and local government web resources and services.